HB9EYW-6 Weather Reports


Display with metric or nautical units.
time (UTC)temp
F
wind
direction
speed
MPH
gust
MPH
rain 1hr
in
rain 24hr
in
rain mn
in
humidity
%
barometer
mb
20260901064003 64 150 1.0 4.0 0.00 0.00 0.00 58
20260901063503 64 157 0.0 2.0 0.00 0.00 0.00 60
20260901063003 64 135 1.0 3.0 0.00 0.00 0.00 60
20260901062503 63 124 0.0 3.0 0.00 0.00 0.00 60
20260901062003 63 123 2.0 3.0 0.00 0.00 0.00 61
20260901061503 63 113 2.0 3.0 0.00 0.00 0.00 61
20260901061003 63 124 0.0 2.0 0.00 0.00 0.00 62
20260901060503 62 123 0.0 2.0 0.00 0.00 0.00 63
20260901060003 62 123 0.0 2.0 0.00 0.00 0.00 63
20260901055503 62 127 0.0 2.0 0.00 0.00 0.00 63
20260901055003 62 127 0.0 2.0 0.00 0.00 0.00 63
20260901054503 62 127 0.0 2.0 0.00 0.00 0.00 63
20260901054003 62 124 0.0 2.0 0.00 0.00 0.00 63
20260901053503 62 135 0.0 1.0 0.00 0.00 0.00 62
20260901053003 62 141 0.0 2.0 0.00 0.00 0.00 62
20260901052503 62 133 0.0 2.0 0.00 0.00 0.00 62
20260901052004 62 135 0.0 2.0 0.00 0.00 0.00 61
20260901051503 62 111 0.0 4.0 0.00 0.00 0.00 61
20260901051003 61 93 0.0 4.0 0.00 0.00 0.00 61
20260901050503 62 102 2.0 4.0 0.00 0.00 0.00 60
20260901050003 62 120 2.0 4.0 0.00 0.00 0.00 60
20260901045503 62 112 0.0 2.0 0.00 0.00 0.00 60
20260901045003 62 112 0.0 2.0 0.00 0.00 0.00 59
20260901044505 62 124 0.0 2.0 0.00 0.00 0.00 59
20260901044003 62 126 1.0 2.0 0.00 0.00 0.00 59
20260901043503 62 122 0.0 2.0 0.00 0.00 0.00 59
20260901043003 62 124 0.0 2.0 0.00 0.00 0.00 59
20260901042503 62 126 0.0 2.0 0.00 0.00 0.00 58
20260901042003 62 135 0.0 2.0 0.00 0.00 0.00 58
20260901041503 62 151 0.0 3.0 0.00 0.00 0.00 59
20260901041003 62 165 0.0 3.0 0.00 0.00 0.00 59
20260901040503 62 170 1.0 2.0 0.00 0.00 0.00 59
20260901040003 62 125 1.0 2.0 0.00 0.00 0.00 59
20260901035503 62 134 0.0 2.0 0.00 0.00 0.00 59
20260901035003 62 139 0.0 2.0 0.00 0.00 0.00 59
20260901034503 62 135 0.0 2.0 0.00 0.00 0.00 59
20260901034003 62 148 0.0 1.0 0.00 0.00 0.00 59
20260901033503 62 158 0.0 1.0 0.00 0.00 0.00 59
20260901033003 62 158 0.0 1.0 0.00 0.00 0.00 59
20260901032503 62 0 0.0 0.0 0.00 0.00 0.00 58
20260901032003 63 0 0.0 0.0 0.00 0.00 0.00 58
20260901031504 63 0 0.0 0.0 0.00 0.00 0.00 58
20260901031003 63 0 0.0 0.0 0.00 0.00 0.00 57
20260901030503 63 0 0.0 0.0 0.00 0.00 0.00 57
20260901030003 63 0 0.0 0.0 0.00 0.00 0.00 57
20260901025503 63 135 0.0 3.0 0.00 0.00 0.00 57
20260901025003 63 133 0.0 3.0 0.00 0.00 0.00 57
20260901024503 63 133 2.0 3.0 0.00 0.00 0.00 57
20260901024003 63 142 0.0 2.0 0.00 0.00 0.00 57
20260901023503 63 143 0.0 2.0 0.00 0.00 0.00 57
20260901023003 64 135 0.0 1.0 0.00 0.00 0.00 57
20260901022503 64 135 0.0 1.0 0.00 0.00 0.00 57
20260901022003 63 135 0.0 2.0 0.00 0.00 0.00 57
20260901021503 63 135 0.0 2.0 0.00 0.00 0.00 57
20260901021003 63 135 0.0 2.0 0.00 0.00 0.00 56
20260901020503 64 135 0.0 2.0 0.00 0.00 0.00 55
20260901020003 64 135 0.0 2.0 0.00 0.00 0.00 55
20260901015503 64 135 1.0 2.0 0.00 0.00 0.00 55
20260901015003 64 135 0.0 1.0 0.00 0.00 0.00 55
20260901014503 64 135 0.0 1.0 0.00 0.00 0.00 55
20260901014003 64 0 0.0 0.0 0.00 0.00 0.00 55
20260901013503 64 135 0.0 1.0 0.00 0.00 0.00 55
20260901013003 64 135 0.0 1.0 0.00 0.00 0.00 55
20260901012503 63 135 0.0 2.0 0.00 0.00 0.00 55
20260901012003 63 135 0.0 2.0 0.00 0.00 0.00 55
20260901011503 63 135 0.0 1.0 0.00 0.00 0.00 55
20260901011004 63 0 0.0 0.0 0.00 0.00 0.00 54
20260901010503 64 135 0.0 1.0 0.00 0.00 0.00 53
20260901010003 64 135 0.0 2.0 0.00 0.00 0.00 53
20260901005503 64 135 0.0 2.0 0.00 0.00 0.00 53
20260901005003 64 135 0.0 2.0 0.00 0.00 0.00 53
20260901004503 64 137 0.0 2.0 0.00 0.00 0.00 53
20260901004003 64 132 0.0 2.0 0.00 0.00 0.00 53
20260901003503 64 131 0.0 2.0 0.00 0.00 0.00 52
20260901003003 65 143 1.0 2.0 0.00 0.00 0.00 53
20260901002503 65 157 0.0 2.0 0.00 0.00 0.00 53
20260901002003 64 148 0.0 2.0 0.00 0.00 0.00 53
20260901001503 64 149 0.0 2.0 0.00 0.00 0.00 52
20260901001003 64 148 0.0 2.0 0.00 0.00 0.00 52
20260901000503 64 150 0.0 2.0 0.00 0.00 0.00 52
20260901000003 64 143 0.0 2.0 0.00 0.00 0.00 52
20260831235503 65 135 0.0 2.0 0.00 0.00 0.00 52
20260831235003 65 129 0.0 2.0 0.00 0.00 0.00 52
20260831234503 65 134 0.0 2.0 0.00 0.00 0.00 52
20260831234003 64 144 0.0 2.0 0.00 0.00 0.00 52
20260831233503 64 144 0.0 2.0 0.00 0.01 0.00 52
20260831233003 64 144 0.0 2.0 0.00 0.01 0.00 52
20260831232503 64 147 0.0 2.0 0.00 0.01 0.00 52
20260831232003 64 141 1.0 2.0 0.00 0.01 0.00 52
20260831231503 64 131 0.0 2.0 0.00 0.02 0.00 52
20260831231003 65 135 0.0 2.0 0.00 0.02 0.00 52
20260831230503 65 149 0.0 1.0 0.00 0.07 0.00 52
20260831230003 65 145 0.0 2.0 0.00 0.07 0.00 52
20260831225503 65 137 0.0 2.0 0.00 0.09 0.00 52
20260831225003 65 147 1.0 2.0 0.00 0.09 0.00 52
20260831224503 65 158 0.0 2.0 0.00 0.09 0.00 52
20260831224003 65 135 0.0 1.0 0.00 0.09 0.00 51
20260831223503 65 135 0.0 1.0 0.00 0.09 0.00 50
20260831223003 65 135 0.0 2.0 0.00 0.09 0.00 50
20260831222503 66 135 0.0 2.0 0.00 0.09 0.00 50
20260831222003 66 162 0.0 1.0 0.00 0.09 0.00 50
20260831221503 66 176 0.0 2.0 0.00 0.09 0.00 51
20260831221003 66 180 0.0 2.0 0.00 0.11 0.00 51
20260831220503 65 165 0.0 2.0 0.00 0.22 0.00 51
20260831220003 65 151 0.0 2.0 0.00 0.22 0.00 51
20260831215503 65 270 0.0 1.0 0.00 0.26 0.22 50
20260831215003 65 280 0.0 2.0 0.00 0.26 0.22 50
20260831214503 65 275 0.0 2.0 0.00 0.26 0.22 49
20260831214003 66 270 1.0 2.0 0.00 0.26 0.22 49
20260831213503 66 270 0.0 2.0 0.00 0.26 0.22 49
20260831213003 66 268 0.0 2.0 0.00 0.26 0.22 48
20260831212503 66 257 0.0 2.0 0.00 0.26 0.22 49
20260831212003 66 259 0.0 1.0 0.00 0.26 0.22 48
20260831211503 66 299 0.0 1.0 0.00 0.26 0.22 48
20260831211003 66 315 0.0 1.0 0.00 0.26 0.22 48
20260831210503 66 315 0.0 1.0 0.00 0.26 0.22 46
20260831210003 66 315 0.0 1.0 0.00 0.26 0.22 46
20260831205503 67 135 0.0 1.0 0.00 0.26 0.22 44
20260831205003 67 202 0.0 1.0 0.00 0.26 0.22 44
20260831204503 67 270 0.0 1.0 0.00 0.26 0.22 44
20260831204003 67 117 0.0 1.0 0.00 0.26 0.22 43
20260831203503 67 129 0.0 1.0 0.00 0.26 0.22 43
20260831203003 68 143 0.0 2.0 0.00 0.26 0.22 42
20260831202503 68 140 0.0 2.0 0.00 0.26 0.22 42
20260831202003 68 142 0.0 2.0 0.00 0.26 0.22 41
20260831201503 68 138 0.0 2.0 0.00 0.26 0.22 41
20260831201003 69 135 0.0 2.0 0.00 0.26 0.22 41
20260831200503 69 135 0.0 2.0 0.00 0.26 0.22 41
20260831200003 69 140 0.0 2.0 0.00 0.26 0.22 41
20260831195503 69 180 0.0 1.0 0.00 0.26 0.22 39
20260831195003 69 0 0.0 0.0 0.00 0.26 0.22 37
20260831194503 69 0 0.0 0.0 0.00 0.26 0.22 36
20260831194003 69 0 0.0 0.0 0.00 0.26 0.22 35
20260831193503 70 0 0.0 0.0 0.00 0.26 0.22 34
20260831193003 70 135 0.0 1.0 0.00 0.26 0.22 33
20260831192503 71 149 0.0 2.0 0.00 0.26 0.22 33
20260831192003 71 135 0.0 2.0 0.00 0.26 0.22 32
20260831191503 71 136 1.0 2.0 0.00 0.26 0.22 32
20260831191003 71 201 0.0 2.0 0.00 0.26 0.22 32
20260831190503 71 215 0.0 1.0 0.00 0.26 0.22 30
20260831190003 71 177 0.0 2.0 0.00 0.26 0.22 30
20260831185503 72 182 0.0 2.0 0.00 0.26 0.22 29
20260831185003 72 185 0.0 2.0 0.00 0.26 0.22 29
20260831184503 72 184 0.0 2.0 0.00 0.26 0.22 28
20260831184003 73 219 0.0 2.0 0.00 0.26 0.22 28
20260831183503 73 237 0.0 2.0 0.00 0.26 0.22 27
20260831183003 73 258 0.0 2.0 0.00 0.26 0.22 27
20260831182503 73 261 1.0 3.0 0.00 0.26 0.22 27
20260831182003 73 258 1.0 4.0 0.00 0.26 0.22 27
20260831181503 73 245 2.0 4.0 0.00 0.26 0.22 26
20260831181003 74 228 2.0 3.0 0.00 0.26 0.22 25
20260831180503 74 234 1.0 4.0 0.00 0.26 0.22 25
20260831180003 74 251 1.0 6.0 0.00 0.26 0.22 25
20260831175503 74 259 2.0 6.0 0.00 0.26 0.22 24
20260831175003 75 272 3.0 6.0 0.00 0.26 0.22 23
20260831174503 75 296 3.0 6.0 0.00 0.26 0.22 23
20260831174003 75 306 2.0 8.0 0.00 0.26 0.22 22
20260831173503 76 291 3.0 8.0 0.00 0.26 0.22 21
20260831173003 76 260 1.0 4.0 0.00 0.26 0.22 21
20260831172503 76 260 1.0 7.0 0.00 0.26 0.22 20
20260831172003 76 260 2.0 7.0 0.00 0.26 0.22 20
20260831171503 77 258 2.0 6.0 0.00 0.26 0.22 20
20260831171003 77 238 2.0 6.0 0.00 0.26 0.22 20
20260831170504 77 250 2.0 8.0 0.00 0.26 0.22 19
20260831170003 77 259 2.0 8.0 0.00 0.26 0.22 19
20260831165503 77 276 3.0 8.0 0.00 0.26 0.22 19
20260831165003 78 290 3.0 8.0 0.00 0.26 0.22 18
20260831164503 78 272 2.0 8.0 0.00 0.26 0.22 19
20260831164003 78 273 3.0 9.0 0.00 0.26 0.22 19
20260831163503 78 279 2.0 10.0 0.00 0.26 0.22 17
20260831163003 78 283 2.0 11.0 0.00 0.26 0.22 18
20260831162503 78 292 5.0 11.0 0.00 0.26 0.22 17
20260831162003 79 270 5.0 8.0 0.00 0.26 0.22 15
20260831161503 80 283 3.0 11.0 0.00 0.26 0.22 16
20260831161003 80 313 2.0 11.0 0.00 0.26 0.22 16
20260831160503 81 295 4.0 10.0 0.00 0.26 0.22 16
20260831160003 81 271 4.0 11.0 0.00 0.26 0.22 16
20260831155503 81 296 2.0 11.0 0.00 0.26 0.22 16
20260831155003 82 299 2.0 9.0 0.00 0.26 0.22 17
20260831154503 82 269 2.0 10.0 0.00 0.26 0.22 17
20260831154003 81 279 2.0 10.0 0.00 0.26 0.22 17
20260831153503 81 317 3.0 11.0 0.00 0.26 0.22 17
20260831153003 80 320 4.0 11.0 0.00 0.26 0.22 17
20260831152503 81 279 7.0 12.0 0.00 0.26 0.22 17
20260831152003 81 248 4.0 12.0 0.00 0.26 0.22 18
20260831151503 81 232 4.0 12.0 0.00 0.26 0.22 18
20260831151003 81 222 2.0 8.0 0.00 0.26 0.22 19
20260831150503 81 217 3.0 11.0 0.00 0.26 0.22 19
20260831150003 81 248 3.0 11.0 0.00 0.26 0.22 19
20260831145503 81 271 3.0 10.0 0.00 0.26 0.22 20
20260831145003 81 271 3.0 15.0 0.00 0.26 0.22 20
20260831144503 81 276 4.0 15.0 0.00 0.26 0.22 19
20260831144003 81 288 3.0 15.0 0.00 0.26 0.22 18
20260831143503 81 285 4.0 15.0 0.00 0.26 0.22 20
20260831143003 81 286 6.0 15.0 0.00 0.26 0.22 19
20260831142503 82 287 2.0 11.0 0.00 0.26 0.22 20
20260831142003 82 291 4.0 8.0 0.00 0.26 0.22 19
20260831141503 82 276 4.0 10.0 0.00 0.26 0.22 18
20260831141003 82 239 4.0 10.0 0.00 0.26 0.22 17
20260831140503 83 240 2.0 6.0 0.00 0.26 0.22 18
20260831140003 83 295 2.0 7.0 0.00 0.26 0.22 18
20260831135503 84 300 2.0 7.0 0.00 0.26 0.22 17
20260831135003 84 286 3.0 7.0 0.00 0.26 0.22 17
20260831134503 83 291 2.0 9.0 0.00 0.26 0.22 19
20260831134003 82 318 2.0 11.0 0.00 0.26 0.22 19
20260831133503 82 309 2.0 11.0 0.00 0.26 0.22 18
20260831133003 82 288 4.0 11.0 0.00 0.26 0.22 16
20260831132503 83 265 4.0 11.0 0.00 0.26 0.22 16
20260831132003 83 260 4.0 11.0 0.00 0.26 0.22 15
20260831131503 83 276 4.0 8.0 0.00 0.26 0.22 15
20260831131004 83 279 2.0 6.0 0.00 0.26 0.22 16
20260831130503 83 263 2.0 6.0 0.00 0.26 0.22 16
20260831130003 83 245 2.0 7.0 0.00 0.26 0.22 16
20260831125503 82 297 2.0 7.0 0.00 0.26 0.22 16
20260831125003 82 307 4.0 8.0 0.00 0.26 0.22 16
20260831124503 81 269 3.0 8.0 0.00 0.26 0.22 16
20260831124003 81 261 3.0 8.0 0.00 0.26 0.22 18
20260831123503 81 262 2.0 8.0 0.00 0.26 0.22 18
20260831123003 82 261 4.0 8.0 0.00 0.26 0.22 17
20260831122503 82 309 3.0 8.0 0.00 0.26 0.22 19
20260831122003 81 313 2.0 8.0 0.00 0.26 0.22 19
20260831121503 80 322 4.0 10.0 0.00 0.26 0.22 19
20260831121003 80 357 3.0 10.0 0.00 0.26 0.22 20
20260831120503 80 329 3.0 11.0 0.00 0.26 0.22 20
20260831120003 80 283 3.0 11.0 0.00 0.26 0.22 20
20260831115503 79 287 4.0 9.0 0.00 0.26 0.22 21
20260831115003 79 300 4.0 10.0 0.00 0.26 0.22 20
20260831114503 79 302 2.0 10.0 0.00 0.26 0.22 20
20260831114003 79 277 3.0 9.0 0.00 0.26 0.22 20
20260831113503 79 283 4.0 8.0 0.00 0.26 0.22 21
20260831113003 78 294 4.0 8.0 0.00 0.26 0.22 22
20260831112503 78 295 3.0 11.0 0.00 0.26 0.22 22
20260831112003 78 305 2.0 11.0 0.00 0.26 0.22 22
20260831111503 78 266 4.0 11.0 0.00 0.26 0.22 21
20260831111003 78 253 3.0 10.0 0.00 0.26 0.22 22
20260831110503 79 246 0.0 5.0 0.00 0.26 0.22 24
20260831110003 79 241 0.0 7.0 0.00 0.26 0.22 24
20260831105503 79 264 2.0 9.0 0.00 0.26 0.22 24
20260831105003 78 281 1.0 9.0 0.00 0.26 0.22 24
20260831104503 78 283 2.0 8.0 0.00 0.26 0.22 23
20260831104003 78 302 2.0 8.0 0.00 0.26 0.22 25
20260831103503 78 329 4.0 8.0 0.00 0.26 0.22 25
20260831103003 78 285 2.0 8.0 0.00 0.26 0.22 26
20260831102503 78 291 2.0 8.0 0.00 0.26 0.22 27
20260831102003 78 296 4.0 8.0 0.00 0.26 0.22 26
20260831101503 78 249 3.0 6.0 0.00 0.26 0.22 28
20260831101003 77 189 2.0 3.0 0.00 0.26 0.22 29
20260831100503 75 218 2.0 8.0 0.00 0.26 0.22 33
20260831100003 75 266 2.0 8.0 0.00 0.26 0.22 33
20260831095503 75 263 3.0 9.0 0.00 0.26 0.22 32
20260831095003 74 250 2.0 13.0 0.00 0.26 0.22 33
20260831094503 73 263 2.0 13.0 0.00 0.26 0.22 35
20260831094003 73 318 2.0 10.0 0.00 0.26 0.22 35
20260831093503 73 294 2.0 10.0 0.00 0.26 0.22 34
20260831093003 73 285 2.0 9.0 0.00 0.26 0.22 37
20260831092503 72 274 2.0 11.0 0.00 0.26 0.22 38
20260831092003 72 286 2.0 11.0 0.00 0.26 0.22 38
20260831091503 72 270 4.0 11.0 0.00 0.26 0.22 37
20260831091003 72 242 5.0 9.0 0.00 0.26 0.22 37
20260831090503 73 224 3.0 7.0 0.00 0.26 0.22 39
20260831090003 73 254 3.0 8.0 0.00 0.26 0.22 39
20260831085503 72 277 3.0 8.0 0.00 0.26 0.22 40
20260831085003 72 281 3.0 11.0 0.00 0.26 0.22 42
20260831084503 71 294 4.0 11.0 0.00 0.26 0.22 42
20260831084003 71 245 3.0 8.0 0.00 0.26 0.22 45
20260831083503 71 193 2.0 8.0 0.00 0.26 0.22 45
20260831083003 70 251 2.0 9.0 0.00 0.26 0.22 47
20260831082503 71 270 4.0 9.0 0.00 0.26 0.22 46
20260831082003 71 281 2.0 8.0 0.00 0.26 0.22 48
20260831081503 71 278 2.0 8.0 0.00 0.26 0.22 49
20260831081003 70 269 3.0 8.0 0.00 0.26 0.22 49
20260831080503 70 267 3.0 8.0 0.00 0.26 0.22 54
20260831080003 70 257 3.0 8.0 0.00 0.26 0.22 54
20260831075503 70 251 4.0 6.0 0.00 0.26 0.22 56
20260831075003 69 294 1.0 5.0 0.00 0.26 0.22 59
20260831074503 69 284 2.0 5.0 0.00 0.26 0.22 58
20260831074003 69 250 2.0 4.0 0.00 0.26 0.22 58
20260831073503 69 260 2.0 4.0 0.00 0.26 0.22 58
20260831073003 69 260 1.0 5.0 0.00 0.26 0.22 60
20260831072503 69 260 2.0 5.0 0.00 0.26 0.22 59
20260831072003 69 257 2.0 7.0 0.00 0.26 0.22 58
20260831071503 70 251 2.0 7.0 0.00 0.26 0.22 58
20260831071003 69 336 1.0 3.0 0.00 0.26 0.22 60
20260831070503 68 315 0.0 2.0 0.00 0.26 0.22 67
20260831070003 68 252 0.0 3.0 0.00 0.26 0.22 67
20260831065503 67 262 1.0 3.0 0.00 0.26 0.22 68
20260831065003 66 266 1.0 3.0 0.00 0.26 0.22 69
20260831064503 66 253 0.0 3.0 0.00 0.26 0.22 71